STARLINK-30774 (58625 NORAD) Tracking and Keplerian Element Data

This shows tracking and keplerian element data for the satellite.

Feedback or suggestion? Click here.




ElementValue
Catalog58625
NameSTARLINK-30774
Epoch Orbit457
Epoch Day13.25002315
Epoch Year2024
RAAN183.7343
Inclination43.0013
Eccentricity0.0001512
Argument of Perigee260.0463
Mean Anonmoly7.5693
Mean Motion15.52635228
Decay Rate-0.01740819
L11 58625U 23203H 24013.25002315 -.01740819 00000+0 -30920-1 0 9990
L22 58625 43.0013 183.7343 0001512 260.0463 7.5693 15.52635228 4573



Live tracking and technical data element details for STARLINK-30774 (NORAD 58625). STARLINK-30774 can be tracked NOW for your location showing map with azimuth and elevation plus other details from your city location.







IsCatalogInMostPopularTable: catalog: 58625, numindb: 28
Update: records affected: 1



GetName: 58625 STARLINK-30774

Hit Count: updated at: Wed, 17 Apr 2024 02:30:45 GMT